Location: Unspecified
(38.3360°N, 0.0000°E)
Time: 01:08:42
(UTC+00:00)

Envisat - Pass Details

Date: 01 June 2019
Orbit: 764 x 766 km, 98.1° (Epoch: 15 June)

Event Time Altitude Azimuth Distance (km) Brightness Sun altitude
Rises 19:41:16 0° 208° (SSW) 3,218 6.2 -4.8°
Reaches altitude 10° 19:44:23 10° 229° (SW) 2,297 5.7 -5.3°
Maximum altitude 19:47:34 17° 268° (W) 1,880 5.9 -5.8°
Drops below altitude 10° 19:50:46 10° 307° (NW) 2,306 7.4 -6.3°
Sets 19:53:56 0° 328° (NNW) 3,238 7.7 -6.8°
